GW4712 Weather Reports


time (UTC)temp
F
wind
direction
speed
knots
gust
knots
rain 1hr
in
rain 24hr
in
rain mn
in
humidity
%
barometer
mb
20260906203102 80 52 0.0 0.0 0.00 0.00 0.00 65 1015.4
20260906202559 80 353 0.0 0.0 0.00 0.00 0.00 64 1015.5
20260906202054 80 55 0.0 0.0 0.00 0.00 0.00 64 1015.5
20260906201553 80 81 0.0 0.0 0.00 0.00 0.00 66 1015.5
20260906201053 80 33 0.0 0.0 0.00 0.00 0.00 65 1015.6
20260906200549 80 359 0.0 0.0 0.00 0.00 0.00 62 1015.6
20260906200045 80 48 0.0 0.0 0.00 0.00 0.00 63 1015.7
20260906195540 80 312 0.0 0.0 0.00 0.00 0.00 64 1015.7
20260906195037 80 33 0.0 0.0 0.00 0.00 0.00 62 1015.7
20260906194532 81 62 0.0 0.0 0.00 0.00 0.00 60 1015.8
20260906194028 80 188 0.0 0.0 0.00 0.00 0.00 58 1015.7
20260906193527 80 28 0.0 0.0 0.00 0.00 0.00 63 1015.8
20260906193023 80 42 0.0 0.0 0.00 0.00 0.00 60 1015.8
20260906192518 80 28 0.0 0.0 0.00 0.00 0.00 58 1015.8
20260906192017 80 39 0.0 0.0 0.00 0.00 0.00 53 1015.8
20260906191512 80 46 0.0 0.0 0.00 0.00 0.00 56 1015.8
20260906191011 80 46 0.0 0.0 0.00 0.00 0.00 60 1016.0
20260906190511 80 59 0.0 0.9 0.00 0.00 0.00 56 1015.7
20260906190006 81 30 0.0 0.0 0.00 0.00 0.00 58 1015.9
20260906185504 80 136 0.0 0.0 0.00 0.00 0.00 67 1015.8
20260906185003 80 155 0.0 0.0 0.00 0.00 0.00 69 1015.8
20260906184459 79 155 0.0 0.0 0.00 0.00 0.00 67 1016.0
20260906183954 79 52 0.0 0.0 0.00 0.00 0.00 67 1016.0
20260906183451 78 36 0.0 0.0 0.00 0.00 0.00 70 1015.9
20260906182946 78 31 0.0 1.7 0.00 0.00 0.00 73 1016.0
20260906182441 78 38 0.0 0.0 0.00 0.00 0.00 71 1016.0
20260906181937 76 357 0.0 0.0 0.00 0.00 0.00 73 1015.9
20260906181432 76 3 0.0 0.9 0.00 0.00 0.00 74 1016.1
20260906180928 78 47 0.0 0.0 0.00 0.00 0.00 75 1016.0
20260906180423 77 60 0.0 0.0 0.00 0.00 0.00 76 1016.1
20260906175921 76 65 0.0 0.0 0.00 0.00 0.00 77 1016.1
20260906175416 77 46 0.0 0.0 0.00 0.00 0.00 73 1016.1
20260906174914 78 57 0.0 0.0 0.00 0.00 0.00 72 1016.1
20260906174414 79 92 0.0 0.0 0.00 0.00 0.00 71 1016.2
20260906173909 77 139 0.0 0.0 0.00 0.00 0.00 77 1016.4
20260906173404 75 22 0.0 0.0 0.00 0.00 0.00 80 1016.4
20260906172903 76 24 0.0 0.0 0.00 0.00 0.00 79 1016.4
20260906172400 78 24 0.0 0.9 0.00 0.00 0.00 79 1016.4
20260906171855 76 41 0.0 0.0 0.00 0.00 0.00 78 1016.3
20260906171349 77 43 0.0 0.0 0.00 0.00 0.00 78 1016.7
20260906170845 77 22 0.9 0.9 0.00 0.00 0.00 77 1016.5
20260906170341 78 118 0.0 0.0 0.00 0.00 0.00 77 1016.3
20260906165837 78 29 0.0 0.0 0.00 0.00 0.00 77 1016.3
20260906165336 78 41 0.0 0.0 0.00 0.00 0.00 78 1016.3
20260906164831 77 58 0.0 0.0 0.00 0.00 0.00 79 1016.1
20260906164330 76 53 0.0 0.0 0.00 0.00 0.00 81 1016.5
20260906163827 76 25 0.0 0.0 0.00 0.00 0.00 80 1016.4
20260906163323 75 38 0.0 0.0 0.00 0.00 0.00 82 1016.4
20260906162820 76 319 0.0 0.0 0.00 0.00 0.00 80 1016.7
20260906162319 76 37 0.0 0.0 0.00 0.00 0.00 84 1016.8
20260906161814 75 26 0.0 0.0 0.00 0.00 0.00 84 1016.7
20260906161314 74 40 0.0 0.0 0.00 0.00 0.00 82 1017.0
20260906160812 74 28 0.0 0.9 0.00 0.00 0.00 86 1016.9
20260906160307 74 24 0.0 0.0 0.00 0.00 0.00 83 1016.8
20260906155804 75 54 0.0 0.0 0.00 0.00 0.00 85 1016.9
20260906155259 74 96 0.0 0.0 0.00 0.00 0.00 86 1017.0
20260906154755 73 10 0.0 0.0 0.00 0.00 0.00 84 1016.9
20260906154250 73 45 0.0 0.0 0.00 0.00 0.00 88 1016.9
20260906153748 73 16 0.0 0.0 0.00 0.00 0.00 87 1017.1
20260906153243 73 358 0.0 0.9 0.00 0.00 0.00 87 1017.1
20260906152738 73 78 0.0 0.0 0.00 0.00 0.00 91 1016.9
20260906152233 73 319 0.0 0.0 0.00 0.00 0.00 89 1016.9
20260906151732 72 109 0.0 0.0 0.00 0.00 0.00 90 1016.8
20260906151228 72 42 0.0 0.0 0.00 0.00 0.00 92 1016.8
20260906150723 71 38 0.0 0.0 0.00 0.00 0.00 92 1016.7
20260906150218 72 33 0.0 0.0 0.00 0.00 0.00 91 1017.1
20260906145717 72 158 0.0 0.0 0.00 0.00 0.00 90 1016.7
20260906145217 71 50 0.0 0.0 0.00 0.00 0.00 91 1016.8
20260906144712 71 52 0.0 0.0 0.00 0.00 0.00 93 1016.7
20260906144207 71 58 0.0 0.0 0.00 0.00 0.00 93 1016.8
20260906143706 70 76 0.0 0.0 0.00 0.00 0.00 95 1016.7
20260906143204 70 28 0.0 0.0 0.00 0.00 0.00 95 1016.9
20260906142703 70 352 0.0 0.0 0.00 0.00 0.00 94 1016.9
20260906142159 70 16 0.0 0.0 0.00 0.00 0.00 95 1016.7
20260906141657 70 16 0.0 0.0 0.00 0.00 0.00 96 1016.7
20260906141152 69 16 0.0 0.0 0.00 0.00 0.00 97 1016.6
20260906140651 69 16 0.0 0.0 0.00 0.00 0.00 97 1016.5
20260906140146 69 32 0.0 0.0 0.00 0.00 0.00 97 1016.6
20260906135643 69 20 0.0 0.0 0.00 0.00 0.00 97 1016.2
20260906135134 69 20 0.0 0.0 0.00 0.00 0.00 98 1016.4
20260906134630 69 20 0.0 0.0 0.00 0.00 0.00 97 1016.2
20260906134130 69 20 0.0 0.0 0.00 0.00 0.00 97 1016.2
20260906133625 69 19 0.0 0.0 0.00 0.00 0.00 98 1016.3
20260906133120 69 19 0.0 0.0 0.00 0.00 0.00 98 1016.4
20260906132615 69 71 0.0 0.0 0.00 0.00 0.00 98 1016.2
20260906132111 69 72 0.0 0.0 0.00 0.00 0.00 98 1016.3
20260906131606 69 72 0.0 0.0 0.00 0.00 0.00 98 1016.3
20260906131102 69 73 0.0 0.0 0.00 0.00 0.00 97 1016.2
20260906130601 68 52 0.0 0.0 0.00 0.00 0.00 99 1016.1
20260906130057 68 51 0.0 0.0 0.00 0.00 0.00 98 1016.1
20260906125554 69 13 0.0 0.0 0.00 0.00 0.00 99 1016.1
20260906125048 69 13 0.0 0.0 0.00 0.00 0.00 99 1016.0
20260906124544 68 13 0.0 0.0 0.00 0.00 0.00 99 1016.0
20260906124038 68 12 0.0 0.0 0.00 0.00 0.00 99 1015.8
20260906123538 69 12 0.0 0.0 0.00 0.00 0.00 99 1015.9
20260906123033 68 12 0.0 0.0 0.00 0.00 0.00 99 1016.0
20260906122527 68 12 0.0 0.0 0.00 0.00 0.00 99 1015.9
20260906122024 68 46 0.0 0.0 0.00 0.00 0.00 99 1015.7
20260906121520 68 45 0.0 0.0 0.00 0.00 0.00 99 1015.8
20260906121015 68 46 0.0 0.0 0.00 0.00 0.00 99 1015.6
20260906120510 68 46 0.0 0.0 0.00 0.00 0.00 99 1015.5
20260906120007 68 46 0.0 0.0 0.00 0.00 0.00 99 1015.5
20260906115501 69 45 0.0 0.0 0.00 0.00 0.00 99 1015.5
20260906114955 69 45 0.0 0.0 0.00 0.00 0.00 99 1015.3
20260906114450 68 45 0.0 0.0 0.00 0.00 0.00 99 1015.4
20260906113946 68 45 0.0 0.0 0.00 0.00 0.00 99 1015.3
20260906113445 68 45 0.0 0.0 0.00 0.00 0.00 99 1015.2
20260906112940 68 45 0.0 0.0 0.00 0.00 0.00 99 1014.9
20260906112436 68 45 0.0 0.0 0.00 0.00 0.00 99 1015.1
20260906111931 68 45 0.0 0.0 0.00 0.00 0.00 99 1015.1
20260906111431 68 45 0.0 0.0 0.00 0.00 0.00 99 1014.9
20260906110925 68 37 0.0 0.0 0.00 0.00 0.00 99 1014.8
20260906110421 68 7 0.0 0.0 0.00 0.00 0.00 99 1014.9
20260906105920 68 7 0.0 0.0 0.00 0.00 0.00 99 1014.6
20260906105416 68 7 0.0 0.0 0.00 0.00 0.00 99 1014.5
20260906104912 68 7 0.0 0.0 0.00 0.00 0.00 99 1014.5
20260906104410 68 7 0.0 0.0 0.00 0.00 0.00 99 1014.5
20260906103909 68 15 0.0 0.0 0.00 0.00 0.00 99 1014.4
20260906103407 68 43 0.0 0.0 0.00 0.00 0.00 99 1014.3
20260906102904 68 43 0.0 0.0 0.00 0.00 0.00 99 1014.1
20260906102402 68 30 0.0 0.0 0.00 0.00 0.00 99 1014.2
20260906101857 68 87 0.0 0.0 0.00 0.00 0.00 99 1014.4
20260906101353 68 87 0.0 0.0 0.00 0.00 0.00 99 1014.2
20260906100848 68 87 0.0 0.0 0.00 0.00 0.00 99 1014.2
20260906100347 69 87 0.0 0.0 0.00 0.00 0.00 99 1014.0
20260906095842 69 87 0.0 0.0 0.00 0.00 0.00 99 1014.2
20260906095338 69 87 0.0 0.0 0.00 0.00 0.00 99 1014.4
20260906094837 69 87 0.0 0.0 0.00 0.00 0.00 99 1014.2
20260906094332 69 87 0.0 0.0 0.00 0.00 0.00 99 1014.1
20260906093829 69 87 0.0 0.0 0.00 0.00 0.00 99 1014.4
20260906093324 69 87 0.0 0.0 0.00 0.00 0.00 99 1014.4
20260906092819 69 87 0.0 0.0 0.00 0.00 0.00 99 1014.3
20260906092314 69 87 0.0 0.0 0.00 0.00 0.00 99 1014.2
20260906091810 69 87 0.0 0.0 0.00 0.00 0.00 99 1014.3
20260906091306 69 87 0.0 0.0 0.00 0.00 0.00 99 1014.4
20260906090802 69 87 0.0 0.0 0.00 0.00 0.00 99 1014.1
20260906090301 69 87 0.0 0.0 0.00 0.00 0.00 99 1014.2
20260906085800 69 87 0.0 0.0 0.00 0.00 0.00 99 1014.3
20260906085259 69 87 0.0 0.0 0.00 0.00 0.00 99 1014.4
20260906084749 69 87 0.0 0.0 0.00 0.00 0.00 99 1014.2
20260906084248 69 87 0.0 0.0 0.00 0.00 0.00 99 1014.1
20260906083743 69 87 0.0 0.0 0.00 0.00 0.00 99 1014.1
20260906083238 69 87 0.0 0.0 0.00 0.00 0.00 99 1014.3
20260906082733 69 87 0.0 0.0 0.00 0.00 0.00 99 1014.1
20260906082228 69 87 0.0 0.0 0.00 0.00 0.00 99 1014.2
20260906081724 69 87 0.0 0.0 0.00 0.00 0.00 99 1014.2
20260906081219 69 87 0.0 0.0 0.00 0.00 0.00 99 1014.0
20260906080716 69 87 0.0 0.0 0.00 0.00 0.00 99 1014.2
20260906080212 69 87 0.0 0.0 0.00 0.00 0.00 99 1014.1
20260906075711 69 87 0.0 0.0 0.00 0.00 0.00 99 1013.9
20260906075206 68 87 0.0 0.0 0.00 0.00 0.00 99 1014.0
20260906074701 68 87 0.0 0.0 0.00 0.00 0.00 99 1013.9
20260906074200 68 87 0.0 0.0 0.00 0.00 0.00 99 1014.0
20260906073655 68 87 0.0 0.0 0.00 0.00 0.00 99 1014.0
20260906073146 68 87 0.0 0.0 0.00 0.00 0.00 99 1014.1
20260906072640 68 87 0.0 0.0 0.00 0.00 0.00 99 1014.1
20260906072136 68 87 0.0 0.0 0.00 0.00 0.00 99 1014.3
20260906071632 68 87 0.0 0.0 0.00 0.00 0.00 99 1014.2
20260906071132 68 87 0.0 0.0 0.00 0.00 0.00 99 1014.3
20260906070629 68 87 0.0 0.0 0.00 0.00 0.00 99 1014.2
20260906070124 68 87 0.0 0.0 0.00 0.00 0.00 99 1014.2
20260906065623 68 87 0.0 0.0 0.00 0.00 0.00 99 1014.4
20260906065119 68 87 0.0 0.0 0.00 0.00 0.00 99 1014.3
20260906064614 68 87 0.0 0.0 0.00 0.00 0.00 99 1014.5
20260906064109 68 87 0.0 0.0 0.00 0.00 0.00 99 1014.3
20260906063604 68 87 0.0 0.0 0.00 0.00 0.00 99 1014.5
20260906063100 68 87 0.0 0.0 0.00 0.00 0.00 99 1014.4
20260906062556 68 87 0.0 0.0 0.00 0.00 0.00 99 1014.2
20260906062055 68 87 0.0 0.0 0.00 0.00 0.00 99 1014.3
20260906061551 68 87 0.0 0.0 0.00 0.00 0.00 99 1014.0
20260906061050 68 87 0.0 0.0 0.00 0.00 0.00 99 1014.3
20260906060547 68 87 0.0 0.0 0.00 0.00 0.00 99 1014.1
20260906060044 68 87 0.0 0.0 0.00 0.00 0.00 99 1014.1
20260906055540 68 87 0.0 0.0 0.00 0.00 0.00 99 1014.2
20260906055036 68 87 0.0 0.0 0.00 0.00 0.00 99 1014.1
20260906054535 68 87 0.0 0.0 0.00 0.00 0.00 99 1014.1
20260906054031 68 87 0.0 0.0 0.00 0.00 0.00 99 1014.2
20260906053527 68 87 0.0 0.0 0.00 0.00 0.00 99 1014.0
20260906053022 68 87 0.0 0.0 0.00 0.00 0.00 99 1013.9
20260906052518 68 87 0.0 0.0 0.00 0.00 0.00 99 1013.9
20260906052015 69 87 0.0 0.0 0.00 0.00 0.00 99 1014.0
20260906051511 69 87 0.0 0.0 0.00 0.00 0.00 99 1014.0
20260906051006 69 87 0.0 0.0 0.00 0.00 0.00 99 1014.0
20260906050506 69 87 0.0 0.0 0.00 0.00 0.00 99 1014.0
20260906050000 69 87 0.0 0.0 0.00 0.00 0.00 99 1014.3
20260906045459 69 87 0.0 0.0 0.00 0.00 0.00 99 1014.3
20260906044954 69 87 0.0 0.0 0.00 0.00 0.00 99 1014.3
20260906044449 69 87 0.0 0.0 0.00 0.00 0.00 99 1014.2
20260906043945 69 87 0.0 0.0 0.00 0.00 0.00 99 1014.0
20260906043440 69 87 0.0 0.0 0.00 0.00 0.00 99 1014.1
20260906042936 69 87 0.0 0.0 0.00 0.00 0.00 99 1014.2
20260906042435 69 87 0.0 0.0 0.00 0.00 0.00 99 1014.1
20260906041930 69 87 0.0 0.0 0.00 0.00 0.00 99 1014.2
20260906041426 69 87 0.0 0.0 0.00 0.00 0.00 99 1014.3
20260906040926 69 87 0.0 0.0 0.00 0.00 0.00 99 1014.1
20260906040421 69 87 0.0 0.0 0.00 0.86 0.86 99 1014.1
20260906035916 69 87 0.0 0.0 0.00 0.86 0.86 99 1014.3
20260906035412 69 87 0.0 0.0 0.00 0.86 0.86 99 1014.2
20260906034907 69 87 0.0 0.0 0.00 0.86 0.86 99 1014.2
20260906034401 69 87 0.0 0.0 0.00 0.86 0.86 99 1014.2
20260906033857 69 87 0.0 0.0 0.00 0.86 0.86 99 1014.2
20260906033357 69 87 0.0 0.0 0.00 0.86 0.86 99 1014.3
20260906032853 69 87 0.0 0.0 0.00 0.86 0.86 99 1014.2
20260906032349 69 87 0.0 0.0 0.00 0.86 0.86 99 1014.4
20260906031844 69 87 0.0 0.0 0.00 0.86 0.86 99 1014.6
20260906031339 70 87 0.0 0.0 0.00 0.86 0.86 99 1014.5
20260906030839 70 87 0.0 0.0 0.00 0.86 0.86 99 1014.5
20260906030334 70 87 0.0 0.0 0.00 0.86 0.86 99 1014.6
20260906025829 70 87 0.0 0.0 0.00 0.86 0.86 99 1014.4
20260906025323 70 87 0.0 0.0 0.00 0.86 0.86 99 1014.9
20260906024822 70 87 0.0 0.0 0.00 0.86 0.86 99 1014.8
20260906024321 70 87 0.0 0.0 0.00 0.86 0.86 99 1014.6
20260906023817 70 87 0.0 0.0 0.00 0.86 0.86 99 1014.4
20260906023313 70 87 0.0 0.0 0.00 0.86 0.86 99 1014.4
20260906022808 71 87 0.0 0.0 0.00 0.86 0.86 99 1014.5
20260906022306 71 87 0.0 0.0 0.00 0.86 0.86 99 1014.4
20260906021759 71 87 0.0 0.0 0.00 0.86 0.86 99 1014.4
20260906021258 71 87 0.0 0.0 0.00 0.86 0.86 99 1014.5
20260906020752 71 88 0.0 0.0 0.00 0.86 0.86 99 1014.2
20260906020246 71 88 0.0 0.0 0.00 0.86 0.86 99 1013.9
20260906015741 71 88 0.0 0.0 0.00 0.86 0.86 99 1014.1
20260906015239 71 88 0.0 0.0 0.00 0.86 0.86 99 1014.1
20260906014734 71 88 0.0 0.0 0.00 0.86 0.86 99 1014.3
20260906014230 71 88 0.0 0.0 0.00 0.86 0.86 99 1014.3
20260906013726 71 88 0.0 0.0 0.05 0.86 0.86 99 1014.2
20260906013221 71 88 0.0 0.0 0.05 0.86 0.86 99 1014.4
20260906012715 71 88 0.0 0.0 0.07 0.85 0.85 99 1014.1
20260906012210 71 90 0.0 0.0 0.73 0.85 0.85 99 1014.2
20260906011705 71 91 0.0 0.0 1.13 0.84 0.84 99 1014.3
20260906011200 71 93 0.0 0.0 0.50 0.70 0.70 99 1014.1
20260906010655 72 187 0.0 0.0 0.19 0.63 0.63 99 1013.9
20260906010152 72 72 0.0 0.0 0.35 0.62 0.62 99 1013.7
20260906005651 72 70 0.0 0.0 0.35 0.60 0.60 99 1014.0
20260906005151 72 8 0.0 0.0 0.35 0.56 0.56 98 1013.9
20260906004649 72 1 0.0 0.0 0.42 0.54 0.54 98 1013.9
20260906004144 73 33 0.0 0.0 0.54 0.50 0.50 98 1013.5
20260906003640 73 51 0.0 0.0 0.35 0.47 0.47 97 1013.8
20260906003136 73 355 1.7 5.2 0.00 0.41 0.41 96 1013.6
20260906002630 73 222 0.0 0.0 0.00 0.41 0.41 97 1013.1
20260906002125 73 222 0.0 0.0 0.00 0.41 0.41 97 1013.1
20260906001621 73 222 0.0 0.0 0.00 0.41 0.41 97 1013.0
20260906001120 73 222 0.0 0.0 0.00 0.41 0.41 97 1012.9
20260906000616 73 222 0.0 0.0 0.00 0.41 0.41 97 1012.8
20260906000112 72 222 0.0 0.0 0.00 0.41 0.41 97 1013.1
20260905235610 73 222 0.0 0.0 0.00 0.41 0.41 96 1013.0
20260905235106 73 222 0.0 0.0 0.00 0.41 0.41 96 1013.0
20260905234601 73 222 0.0 0.0 0.00 0.41 0.41 95 1013.0
20260905234056 74 222 0.0 0.0 0.00 0.41 0.41 94 1013.1
20260905233556 74 222 0.0 0.0 0.00 0.41 0.41 93 1012.9
20260905233051 75 222 0.0 0.0 0.00 0.41 0.41 92 1012.7
20260905232546 75 223 0.0 0.0 0.00 0.41 0.41 91 1012.9
20260905232041 76 223 0.0 0.0 0.00 0.41 0.41 90 1013.0
20260905231537 76 217 0.0 0.0 0.00 0.41 0.41 90 1013.0
20260905231033 76 217 0.0 0.0 0.00 0.41 0.41 90 1012.9
20260905230532 77 218 0.0 0.0 0.00 0.41 0.41 88 1013.1
20260905230030 77 218 0.0 0.0 0.00 0.41 0.41 88 1012.9
20260905225525 78 218 0.0 0.0 0.00 0.41 0.41 86 1013.0
20260905225020 78 218 0.0 0.0 0.00 0.41 0.41 86 1012.9
20260905224515 79 219 0.0 0.0 0.00 0.41 0.41 85 1012.9
20260905224015 80 231 0.0 0.0 0.00 0.41 0.41 84 1013.0
20260905223513 82 235 0.0 0.0 0.00 0.41 0.41 79 1013.0
20260905223008 82 270 0.0 0.0 0.00 0.41 0.41 75 1013.0
20260905222507 83 251 0.0 0.0 0.00 0.41 0.41 72 1012.9
20260905222002 83 276 0.0 0.0 0.00 0.41 0.41 71 1013.0
20260905221459 83 250 0.0 0.0 0.00 0.41 0.41 71 1013.1
20260905220955 83 3 0.0 0.0 0.00 0.41 0.41 69 1012.9
20260905220451 84 271 0.0 0.0 0.00 0.41 0.41 69 1013.0
20260905215949 84 322 0.0 0.0 0.00 0.41 0.41 68 1013.1
20260905215446 84 4 0.0 0.0 0.00 0.41 0.41 67 1012.9
20260905214942 83 22 0.0 0.0 0.00 0.41 0.41 71 1012.9
20260905214437 84 276 0.0 0.0 0.00 0.41 0.41 71 1012.9
20260905213937 84 249 0.0 0.0 0.00 0.41 0.41 71 1012.8
20260905213434 84 243 0.0 0.0 0.00 0.41 0.41 68 1012.8
20260905212928 84 253 0.0 0.0 0.00 0.41 0.41 68 1012.8
20260905212423 84 246 0.0 0.0 0.00 0.41 0.41 68 1012.7
20260905211922 84 11 0.0 0.0 0.00 0.41 0.41 66 1012.5
20260905211418 84 345 0.0 0.0 0.00 0.41 0.41 69 1012.5
20260905210914 83 262 0.0 0.0 0.00 0.41 0.41 74 1012.5
20260905210409 83 303 0.0 0.0 0.00 0.41 0.41 70 1012.5
20260905205908 83 301 0.0 0.0 0.00 0.41 0.41 69 1012.7
20260905205357 83 293 0.0 0.0 0.00 0.41 0.41 71 1012.6
20260905204856 84 265 0.0 0.0 0.00 0.41 0.41 67 1012.8
20260905204352 84 265 0.0 0.0 0.00 0.41 0.41 66 1012.8
20260905203845 84 347 0.0 0.0 0.00 0.41 0.41 71 1012.9